Weather History for Rifle, CO

Change the Weather History Date:

Sunday, September 8, 2013

  Actual Average Record
Temperature  
Mean Temperature 73 °F 64 °F  
Max Temperature 86 °F 81 °F 94 °F (1940)
Min Temperature 60 °F 47 °F 34 °F (1959)
Degree Days  
Heating Degree Days 0 2  
Month to date heating degree days 0 12  
Since 1 July heating degree days 0 19  
Cooling Degree Days 8 1  
Month to date cooling degree days 86 14  
Year to date cooling degree days 792 530  
Growing Degree Days 22 (Base 50)    
Moisture  
Dew Point 49 °F    
Average Humidity 47    
Maximum Humidity 67    
Minimum Humidity 26    
Precipitation  
Precipitation T in 0.05 in 0.76 in (1954)
Month to date precipitation 0.04 0.39  
Year to date precipitation 5.13 9.36  
Sea Level Pressure  
Sea Level Pressure 29.88 in    
Wind  
Wind Speed 9 mph (WNW)    
Max Wind Speed 30 mph    
Max Gust Speed 37 mph    
Visibility 10 miles    
Events Rain    
T = Trace of Precipitation, MM = Missing Value Source: NWS Daily Summary

Daily Weather History Graph

Daily Weather History Graph

Search for Another Location

Airport:

Trip Planner

Search our weather history database for the weather conditions in past years. The results will help you decide how hot, cold, wet, or windy it might be!

Date:

Astronomy

Sep. 08, 2013 Rise Set
Actual Time 6:45 AM MDT 7:30 PM MDT
Civil Twilight 6:18 AM MDT 7:57 PM MDT
Nautical Twilight 5:46 AM MDT 8:29 PM MDT
Astronomical Twilight 5:13 AM MDT 9:02 PM MDT
Moon 10:05 AM MDT (9/8) 9:08 PM MDT (9/8)
Length of Visible Light 13h 38m
Length of Day
12h 44m
Waxing Crescent, 11% of the Moon is Illuminated
Sep 8
Waxing Crescent
Sep 12
First Quarter
Sep 19
Full
Sep 26
Last Quarter
Oct 4
New

Hourly Weather History & Observations

Time (MDT) Temp. Dew Point Humidity Pressure Visibility Wind Dir Wind Speed Gust Speed Precip Events Conditions
12:53 AM 69.1 °F 51.1 °F 53% 29.91 in 10.0 mi WNW 4.6 mph - N/A   Mostly Cloudy
1:53 AM 66.9 °F 52.0 °F 59% 29.90 in 10.0 mi South 9.2 mph - N/A   Clear
2:53 AM 64.0 °F 53.1 °F 67% 29.91 in 10.0 mi East 5.8 mph - N/A   Mostly Cloudy
3:53 AM 64.0 °F 51.1 °F 63% 29.90 in 10.0 mi SSE 4.6 mph - N/A   Clear
4:53 AM 63.0 °F 50.0 °F 63% 29.90 in 10.0 mi NE 4.6 mph - N/A   Clear
5:53 AM 62.1 °F 51.1 °F 67% 29.91 in 10.0 mi North 3.5 mph - N/A   Scattered Clouds
6:53 AM 62.1 °F 50.0 °F 65% 29.94 in 10.0 mi Calm Calm - N/A   Clear
7:53 AM 64.9 °F 50.0 °F 58% 29.96 in 10.0 mi Calm Calm - N/A   Clear
8:53 AM 66.9 °F 50.0 °F 54% 29.95 in 10.0 mi Calm Calm - N/A   Clear
9:53 AM 72.0 °F 48.9 °F 44% 29.92 in 10.0 mi NNW 4.6 mph - N/A   Partly Cloudy
10:53 AM 75.0 °F 48.0 °F 38% 29.91 in 10.0 mi Calm Calm - N/A   Partly Cloudy
11:53 AM 77.0 °F 46.9 °F 34% 29.88 in 10.0 mi Calm Calm - N/A   Clear
12:53 PM 82.0 °F 45.0 °F 27% 29.83 in 10.0 mi WNW 8.1 mph - N/A   Clear
1:53 PM 82.0 °F 46.0 °F 28% 29.81 in 10.0 mi WNW 18.4 mph - N/A   Clear
2:53 PM 82.9 °F 45.0 °F 26% 29.78 in 10.0 mi West 21.9 mph - N/A   Clear
3:53 PM 82.9 °F 46.0 °F 27% 29.75 in 10.0 mi West 26.5 mph 36.8 mph N/A   Clear
4:53 PM 81.0 °F 46.0 °F 29% 29.76 in 10.0 mi West 19.6 mph 26.5 mph N/A   Scattered Clouds
5:53 PM 79.0 °F 46.9 °F 32% 29.80 in 10.0 mi West 23.0 mph - N/A   Overcast
6:35 PM 75.2 °F 51.8 °F 44% 30.03 in 10.0 mi NW 18.4 mph 25.3 mph 0.00 in Rain Light Rain
6:53 PM 73.9 °F 53.1 °F 48% 29.84 in 10.0 mi NW 16.1 mph - 0.00 in   Mostly Cloudy
7:53 PM 73.0 °F 51.1 °F 46% 29.86 in 10.0 mi NW 12.7 mph - N/A   Mostly Cloudy
8:53 PM 71.1 °F 48.9 °F 45% 29.88 in 10.0 mi West 11.5 mph - N/A   Overcast
9:53 PM 70.0 °F 50.0 °F 49% 29.88 in 10.0 mi West 10.4 mph - N/A   Mostly Cloudy
10:53 PM 70.0 °F 50.0 °F 49% 29.87 in 10.0 mi SW 8.1 mph - N/A   Mostly Cloudy
11:53 PM 68.0 °F 50.0 °F 52% 29.86 in 10.0 mi West 5.8 mph - N/A   Partly Cloudy